EW9704 Weather Reports


time (UTC)temp
C
wind
direction
speed
KPH
gust
KPH
rain 1hr
cm
rain 24hr
cm
rain mn
cm
humidity
%
barometer
mb
20260506184557 21 65 6.4 12.9 0.00 0.20 0.20 61 1011.1
20260506183052 21 28 0.0 9.7 0.00 0.20 0.20 42 1010.9
20260506181548 20 146 0.0 0.0 0.00 0.20 0.20 5 1010.6
20260506180047 19 24 0.0 0.0 0.00 0.20 0.20 1 1010.8
20260506174540 18 83 0.0 6.4 0.00 0.20 0.20 1 1010.9
20260506173050 17 125 0.0 4.8 0.00 0.20 0.20 1 1010.6
20260506171531 16 68 0.0 0.0 0.00 0.20 0.20 1 1011.0
20260506170026 15 67 0.0 6.4 0.15 0.20 0.20 1 1011.5
20260506164521 13 62 1.6 14.5 0.20 0.20 0.20 1 1012.6
20260506163025 13 41 6.4 24.1 0.20 0.20 0.20 1 1013.5
20260506161515 14 36 6.4 17.7 0.20 0.20 0.20 1 1013.8
20260506160008 15 53 8.0 24.1 0.05 0.05 0.05 1 1013.3
20260506154502 15 36 6.4 19.3 0.00 0.00 0.00 1 1012.7
20260506153100 16 48 8.0 14.5 0.00 0.00 0.00 1 1011.8
20260506151553 17 42 4.8 11.3 0.00 0.00 0.00 1 1011.2
20260506150049 18 30 6.4 17.7 0.00 0.00 0.00 1 1011.1
20260506144544 19 34 6.4 17.7 0.00 0.00 0.00 1 1011.0
20260506143042 21 51 3.2 17.7 0.00 0.00 0.00 36 1010.4
20260506141535 25 291 0.0 0.0 0.00 0.00 0.00 1 1010.2
20260506140031 25 226 0.0 0.0 0.00 0.00 0.00 1 1009.4
20260506134526 24 220 0.0 0.0 0.00 0.00 0.00 1 1009.5
20260506133024 23 214 0.0 6.4 0.00 0.00 0.00 1 1009.3
20260506131529 23 183 0.0 6.4 0.00 0.00 0.00 1 1009.2
20260506130014 22 287 0.0 0.0 0.00 0.00 0.00 1 1009.1
20260506124511 22 287 0.0 0.0 0.00 0.00 0.00 1 1009.1
20260506123006 -17 0.0 0.0 0.00 0.00 0.00 1008.8
20260506121502 -17 0.0 0.0 0.00 0.00 0.00 1008.8
20260506120106 -17 0.0 0.0 0.00 0.00 0.00 1008.8
20260506114553 -17 0.0 0.0 0.00 0.00 0.00 1008.9
20260506113054 -17 0.0 0.0 0.00 0.00 0.00 1008.8
20260506111544 -17 0.0 0.0 0.00 0.00 0.00 1008.7
20260506110050 -17 0.0 0.0 0.00 0.00 0.00 1008.7
20260506104541 -17 0.0 0.0 0.00 0.00 0.00 1008.4
20260506103041 -17 0.0 0.0 0.00 0.00 0.00 1008.2
20260506101540 -17 0.0 0.0 0.00 0.00 0.00 1008.1
20260506100022 -17 0.0 0.0 0.00 0.00 0.00 1007.8
20260506094523 -17 0.0 0.0 0.00 0.00 0.00 1007.8
20260506093017 -17 0.0 0.0 0.00 0.00 0.00 1007.7
20260506091513 23 272 1.6 6.4 0.00 0.00 0.00 1 1007.6
20260506090005 23 218 1.6 11.3 0.00 0.00 0.00 1 1007.6
20260506084623 23 274 3.2 11.3 0.00 0.00 0.00 1 1007.6
20260506083056 23 270 1.6 12.9 0.00 0.00 0.00 1 1007.6
20260506081555 23 227 0.0 9.7 0.00 0.00 0.00 1 1007.7
20260506073044 23 306 6.4 19.3 0.00 0.00 0.00 1 1007.9
20260506071536 23 258 6.4 17.7 0.00 0.00 0.00 1 1007.8
20260506061516 22 273 3.2 16.1 0.00 0.00 0.00 1 1007.7
20260506044651 23 208 3.2 12.9 0.00 0.00 0.00 1 1007.7
20260506043046 23 274 1.6 12.9 0.00 0.00 0.00 1 1007.6
20260506041551 23 183 4.8 12.9 0.00 0.00 0.00 1 1007.5
20260506040036 23 227 4.8 14.5 0.00 0.00 0.00 1 1007.3
20260506034559 23 222 3.2 11.3 0.00 0.00 0.00 1 1007.3
20260506033026 24 208 4.8 12.9 0.00 0.00 0.00 1 1006.9
20260506031523 24 173 3.2 17.7 0.00 0.00 0.00 1 1006.8
20260506030018 24 184 4.8 9.7 0.00 0.00 0.00 1 1006.6
20260506024513 25 216 4.8 9.7 0.00 0.00 0.00 5 1006.4
20260506023009 25 186 3.2 11.3 0.00 0.00 0.00 12 1006.1
20260506021504 25 209 3.2 9.7 0.00 0.00 0.00 22 1005.8
20260506020100 25 202 0.0 6.4 0.00 0.00 0.00 35 1005.8
20260506014555 25 205 0.0 8.0 0.00 0.00 0.00 42 1005.6
20260506013050 26 219 3.2 6.4 0.00 0.00 0.00 48 1005.6
20260506011557 26 271 1.6 8.0 0.00 0.00 0.00 53 1005.5
20260506010051 26 263 0.0 11.3 0.00 0.00 0.00 57 1005.5
20260506004558 27 178 3.2 11.3 0.00 0.00 0.00 58 1005.3
20260506003043 27 292 1.6 6.4 0.00 0.00 0.00 58 1005.2
20260506001528 27 233 1.6 9.7 0.00 0.00 0.00 62 1005.0
20260506000026 27 236 1.6 11.3 0.00 0.00 0.00 65 1004.9
20260505234530 27 216 1.6 8.0 0.00 0.00 0.00 66 1004.7
20260505233015 28 267 3.2 16.1 0.00 0.00 0.00 67 1004.4
20260505231514 28 180 6.4 16.1 0.00 0.00 0.00 68 1004.3
20260505230008 28 219 4.8 11.3 0.00 0.00 0.00 68 1004.4
20260505224501 28 218 6.4 12.9 0.00 0.00 0.00 68 1004.7
20260505223057 28 216 6.4 20.9 0.00 0.00 0.00 68 1004.5
20260505221553 28 183 9.7 20.9 0.00 0.00 0.00 68 1004.7
20260505220100 28 238 6.4 20.9 0.00 0.00 0.00 68 1004.6
20260505214543 28 223 11.3 25.7 0.00 0.00 0.00 68 1004.9
20260505213039 28 231 9.7 24.1 0.00 0.00 0.00 68 1005.1
20260505211542 29 311 8.0 22.5 0.00 0.00 0.00 68 1005.3
20260505210031 28 225 9.7 19.3 0.00 0.00 0.00 68 1005.6
20260505204524 28 218 11.3 25.7 0.00 0.00 0.00 68 1005.7
20260505203021 28 195 9.7 30.6 0.00 0.00 0.00 68 1006.0
20260505201522 28 201 8.0 24.1 0.00 0.00 0.00 67 1006.2
20260505200012 27 220 8.0 20.9 0.00 0.00 0.00 68 1006.4
20260505194520 27 228 12.9 24.1 0.00 0.00 0.00 68 1006.8
20260505193010 26 260 6.4 20.9 0.00 0.00 0.00 64 1007.1
20260505191601 26 285 3.2 22.5 0.00 0.00 0.00 62 1007.2
20260505190054 26 319 6.4 16.1 0.00 0.00 0.00 57 1007.3